DUZEAR1 KELP-KABQ

Flight info

Callsign DUZEAR1
Flight time 0h 54m
Altitude 30000
Route KELP/26L N0273F300 ATKNN5 ATKNN DCT BECON J13 RUTER DCT LOOBY DCT YONIC DCT LZZRD LZZRD4 KABQ/21
Aircraft PC12/L-SDE2FGIRWY/SB1

Departure

Time 2026-04-22 20:24
Airport El Paso International Airport (KELP)

Arrival

Time 2026-04-22 21:18
Airport Albuquerque International Sunport (KABQ)
Time Latitude Longitude Altitude Speed Heading
2026-04-22 20:03 31.79779 -106.37086 3943 ft 0 kts 269°
2026-04-22 20:20 31.79779 -106.37088 3943 ft 3 kts 269°
2026-04-22 20:20 31.79807 -106.37165 3943 ft 12 kts 310°
2026-04-22 20:20 31.79877 -106.37204 3943 ft 14 kts 327°
2026-04-22 20:21 31.79959 -106.37213 3943 ft 18 kts 93°
2026-04-22 20:21 31.79949 -106.37011 3943 ft 33 kts 93°
2026-04-22 20:21 31.79936 -106.36777 3943 ft 16 kts 93°
2026-04-22 20:21 31.79927 -106.36592 3943 ft 28 kts 92°
2026-04-22 20:22 31.79918 -106.36409 3943 ft 21 kts 92°
2026-04-22 20:22 31.79908 -106.36217 3943 ft 29 kts 93°
2026-04-22 20:22 31.79911 -106.36005 3943 ft 22 kts 50°
2026-04-22 20:22 31.80047 -106.35990 3944 ft 19 kts 325°
2026-04-22 20:23 31.80074 -106.36192 3943 ft 44 kts 273°
2026-04-22 20:23 31.80101 -106.36783 3956 ft 97 kts 272°
2026-04-22 20:23 31.80150 -106.37772 3999 ft 148 kts 272°
2026-04-22 20:23 31.80222 -106.39142 4191 ft 180 kts 273°
2026-04-22 20:24 31.80327 -106.40605 4874 ft 176 kts 275°
2026-04-22 20:24 31.80257 -106.42031 5457 ft 178 kts 252°
2026-04-22 20:24 31.79580 -106.43173 6404 ft 159 kts 236°
2026-04-22 20:24 31.79007 -106.44173 7480 ft 140 kts 240°
2026-04-22 20:25 31.78464 -106.45123 8250 ft 141 kts 238°
2026-04-22 20:25 31.77896 -106.46077 8977 ft 145 kts 238°
2026-04-22 20:25 31.77314 -106.47044 9769 ft 143 kts 238°
2026-04-22 20:25 31.76744 -106.48017 10482 ft 145 kts 243°
2026-04-22 20:26 31.76424 -106.49131 11224 ft 144 kts 261°
2026-04-22 20:26 31.76416 -106.50307 11984 ft 146 kts 276°
2026-04-22 20:26 31.76734 -106.51452 12714 ft 151 kts 293°
2026-04-22 20:26 31.77327 -106.52499 13426 ft 155 kts 298°
2026-04-22 20:27 31.77931 -106.53553 14110 ft 156 kts 297°
2026-04-22 20:27 31.78536 -106.54610 14746 ft 157 kts 297°
2026-04-22 20:27 31.79151 -106.55676 15419 ft 158 kts 298°
2026-04-22 20:27 31.79770 -106.56749 16086 ft 160 kts 298°
2026-04-22 20:28 31.80283 -106.57894 16747 ft 157 kts 285°
2026-04-22 20:28 31.80498 -106.59145 17420 ft 156 kts 272°
2026-04-22 20:28 31.80422 -106.60421 18065 ft 158 kts 260°
2026-04-22 20:28 31.80227 -106.61697 18669 ft 160 kts 261°
2026-04-22 20:29 31.80041 -106.62993 19244 ft 162 kts 261°
2026-04-22 20:29 31.79849 -106.64306 19814 ft 164 kts 261°
2026-04-22 20:29 31.79653 -106.65639 20386 ft 166 kts 261°
2026-04-22 20:29 31.79456 -106.66988 20942 ft 169 kts 262°
2026-04-22 20:30 31.79467 -106.68374 21507 ft 172 kts 277°
2026-04-22 20:30 31.79797 -106.69737 22071 ft 176 kts 290°
2026-04-22 20:30 31.80437 -106.70965 22633 ft 182 kts 305°
2026-04-22 20:30 31.81400 -106.71998 23203 ft 190 kts 321°
2026-04-22 20:31 31.82610 -106.72673 23786 ft 196 kts 336°
2026-04-22 20:31 31.83891 -106.73139 24301 ft 195 kts 335°
2026-04-22 20:31 31.85173 -106.73626 24845 ft 193 kts 335°
2026-04-22 20:31 31.86448 -106.74105 25392 ft 192 kts 335°
2026-04-22 20:32 31.87716 -106.74579 25948 ft 190 kts 334°
2026-04-22 20:32 31.88969 -106.75047 26552 ft 189 kts 334°
2026-04-22 20:32 31.90216 -106.75513 27211 ft 187 kts 334°
2026-04-22 20:32 31.91447 -106.75975 27921 ft 185 kts 333°
2026-04-22 20:33 31.92666 -106.76431 28669 ft 183 kts 333°
2026-04-22 20:33 31.93872 -106.76883 29432 ft 181 kts 332°
2026-04-22 20:33 31.95087 -106.77342 29985 ft 188 kts 332°
2026-04-22 20:33 31.96406 -106.77849 30088 ft 213 kts 333°
2026-04-22 20:34 31.97910 -106.78419 30083 ft 240 kts 334°
2026-04-22 20:34 31.99571 -106.79036 30070 ft 261 kts 335°
2026-04-22 20:34 32.01356 -106.79699 30053 ft 276 kts 335°
2026-04-22 20:34 32.03184 -106.80377 30023 ft 266 kts 335°
2026-04-22 20:35 32.04923 -106.81022 30019 ft 262 kts 335°
2026-04-22 20:35 32.06671 -106.81689 29998 ft 266 kts 335°
2026-04-22 20:35 32.08440 -106.82358 29990 ft 267 kts 335°
2026-04-22 20:35 32.10197 -106.83013 30002 ft 264 kts 335°
2026-04-22 20:36 32.11939 -106.83666 30009 ft 262 kts 335°
2026-04-22 20:36 32.13670 -106.84320 30023 ft 261 kts 334°
2026-04-22 20:36 32.15407 -106.84977 30041 ft 263 kts 335°
2026-04-22 20:36 32.17155 -106.85635 30054 ft 265 kts 335°
2026-04-22 20:37 32.18921 -106.86299 30075 ft 266 kts 335°
2026-04-22 20:37 32.20683 -106.86963 30095 ft 266 kts 335°
2026-04-22 20:37 32.22447 -106.87629 30100 ft 267 kts 335°
2026-04-22 20:37 32.24216 -106.88296 30101 ft 267 kts 335°
2026-04-22 20:38 32.25985 -106.88964 30098 ft 267 kts 335°
2026-04-22 20:38 32.27764 -106.89598 30098 ft 269 kts 339°
2026-04-22 20:38 32.29651 -106.89865 30098 ft 278 kts 351°
2026-04-22 20:38 32.31589 -106.89847 30093 ft 279 kts 352°
2026-04-22 20:39 32.33526 -106.89837 30095 ft 278 kts 352°
2026-04-22 20:39 32.35459 -106.89834 30096 ft 278 kts 352°
2026-04-22 20:39 32.37396 -106.89826 30098 ft 278 kts 352°
2026-04-22 20:39 32.39323 -106.89814 30084 ft 276 kts 352°
2026-04-22 20:40 32.41237 -106.89805 30066 ft 275 kts 352°
2026-04-22 20:40 32.43148 -106.89796 30050 ft 274 kts 351°
2026-04-22 20:40 32.45046 -106.89788 30029 ft 273 kts 352°
2026-04-22 20:40 32.46963 -106.89781 30017 ft 277 kts 352°
2026-04-22 20:41 32.48893 -106.89772 30010 ft 279 kts 352°
2026-04-22 20:41 32.50836 -106.89761 29989 ft 277 kts 352°
2026-04-22 20:41 32.52752 -106.89749 29966 ft 274 kts 352°
2026-04-22 20:41 32.54656 -106.89741 29949 ft 273 kts 352°
2026-04-22 20:42 32.56553 -106.89734 29930 ft 272 kts 352°
2026-04-22 20:42 32.58454 -106.89726 29917 ft 275 kts 352°
2026-04-22 20:42 32.60374 -106.89719 29904 ft 277 kts 352°
2026-04-22 20:42 32.62311 -106.89708 29882 ft 279 kts 352°
2026-04-22 20:43 32.64254 -106.89698 29864 ft 279 kts 352°
2026-04-22 20:43 32.66179 -106.89686 29857 ft 275 kts 352°
2026-04-22 20:43 32.68084 -106.89678 29847 ft 273 kts 351°
2026-04-22 20:43 32.69984 -106.89672 29847 ft 275 kts 351°
2026-04-22 20:44 32.71904 -106.89664 29855 ft 277 kts 352°
2026-04-22 20:44 32.73812 -106.89654 29859 ft 278 kts 352°
2026-04-22 20:44 32.75783 -106.89545 29853 ft 282 kts 356°
2026-04-22 20:44 32.77739 -106.89334 29859 ft 283 kts 356°
2026-04-22 20:45 32.79701 -106.89134 29853 ft 283 kts 356°
2026-04-22 20:45 32.81664 -106.88939 29851 ft 283 kts 356°
2026-04-22 20:45 32.83578 -106.88743 29852 ft 279 kts 356°
2026-04-22 20:45 32.85513 -106.88546 29843 ft 277 kts 356°
2026-04-22 20:46 32.89349 -106.88157 29838 ft 276 kts 356°
2026-04-22 20:46 32.91265 -106.87963 29840 ft 278 kts 356°
2026-04-22 20:46 32.93204 -106.87767 29841 ft 281 kts 356°
2026-04-22 20:47 32.95155 -106.87568 29850 ft 282 kts 356°
2026-04-22 20:47 32.97118 -106.87367 29849 ft 284 kts 356°
2026-04-22 20:47 32.99087 -106.87166 29841 ft 282 kts 356°
2026-04-22 20:47 33.00999 -106.86969 29839 ft 279 kts 356°
2026-04-22 20:48 33.02966 -106.86768 29844 ft 277 kts 356°
2026-04-22 20:48 33.04895 -106.86574 29853 ft 280 kts 356°
2026-04-22 20:48 33.06848 -106.86378 29847 ft 283 kts 356°
2026-04-22 20:48 33.08816 -106.86175 29848 ft 283 kts 356°
2026-04-22 20:49 33.10768 -106.85971 29843 ft 281 kts 356°
2026-04-22 20:49 33.12710 -106.85773 29835 ft 279 kts 356°
2026-04-22 20:49 33.14642 -106.85578 29841 ft 279 kts 356°
2026-04-22 20:49 33.16571 -106.85381 29839 ft 278 kts 356°
2026-04-22 20:50 33.18502 -106.85183 29842 ft 278 kts 356°
2026-04-22 20:50 33.20429 -106.84986 29840 ft 278 kts 356°
2026-04-22 20:50 33.22334 -106.84791 29845 ft 280 kts 356°
2026-04-22 20:50 33.24314 -106.84590 29845 ft 283 kts 356°
2026-04-22 20:51 33.26252 -106.84391 29842 ft 284 kts 356°
2026-04-22 20:51 33.28220 -106.84187 29840 ft 284 kts 356°
2026-04-22 20:51 33.30176 -106.83983 29837 ft 280 kts 356°
2026-04-22 20:51 33.32113 -106.83786 29833 ft 278 kts 355°
2026-04-22 20:52 33.34041 -106.83590 29835 ft 278 kts 355°
2026-04-22 20:52 33.35974 -106.83392 29835 ft 281 kts 356°
2026-04-22 20:52 33.37929 -106.83193 29832 ft 283 kts 356°
2026-04-22 20:52 33.39894 -106.82990 29835 ft 284 kts 356°
2026-04-22 20:53 33.41870 -106.82784 29830 ft 285 kts 356°
2026-04-22 20:53 33.43826 -106.82581 29830 ft 282 kts 356°
2026-04-22 20:53 33.45777 -106.82381 29827 ft 280 kts 355°
2026-04-22 20:53 33.47715 -106.82182 29825 ft 279 kts 355°
2026-04-22 20:54 33.49648 -106.81983 29824 ft 279 kts 355°
2026-04-22 20:54 33.51594 -106.81784 29828 ft 282 kts 356°
2026-04-22 20:54 33.53551 -106.81583 29828 ft 284 kts 356°
2026-04-22 20:54 33.55527 -106.81378 29831 ft 285 kts 356°
2026-04-22 20:55 33.57500 -106.81173 29825 ft 285 kts 356°
2026-04-22 20:55 33.59476 -106.80969 29824 ft 284 kts 356°
2026-04-22 20:55 33.61438 -106.80765 29822 ft 281 kts 356°
2026-04-22 20:55 33.63384 -106.80563 29817 ft 281 kts 355°
2026-04-22 20:56 33.65333 -106.80364 29703 ft 284 kts 356°
2026-04-22 20:56 33.67316 -106.80163 29408 ft 285 kts 356°
2026-04-22 20:56 33.69284 -106.79954 29105 ft 283 kts 356°
2026-04-22 20:56 33.71233 -106.79749 28798 ft 280 kts 356°
2026-04-22 20:57 33.72522 -106.79618 28594 ft 283 kts 356°
2026-04-22 20:57 33.74484 -106.79418 28282 ft 283 kts 356°
2026-04-22 20:57 33.76445 -106.79214 27973 ft 284 kts 356°
2026-04-22 20:57 33.78419 -106.79009 27661 ft 285 kts 356°
2026-04-22 20:58 33.80392 -106.78802 27350 ft 285 kts 356°
2026-04-22 20:58 33.82365 -106.78598 27036 ft 286 kts 356°
2026-04-22 20:58 33.84362 -106.78391 26715 ft 287 kts 357°
2026-04-22 20:58 33.86355 -106.78184 26397 ft 288 kts 356°
2026-04-22 20:59 33.88355 -106.77975 26073 ft 289 kts 357°
2026-04-22 20:59 33.90356 -106.77577 25753 ft 297 kts
2026-04-22 20:59 33.92361 -106.76797 25422 ft 300 kts 11°
2026-04-22 20:59 33.94319 -106.76046 25088 ft 301 kts 10°
2026-04-22 21:00 33.96318 -106.75294 24753 ft 301 kts 10°
2026-04-22 21:00 33.98332 -106.74531 24403 ft 306 kts 11°
2026-04-22 21:00 34.00370 -106.73751 24052 ft 312 kts 11°
2026-04-22 21:00 34.02463 -106.72954 23684 ft 318 kts 11°
2026-04-22 21:01 34.04580 -106.72144 23280 ft 319 kts 11°
2026-04-22 21:01 34.06662 -106.71342 22893 ft 304 kts 11°
2026-04-22 21:01 34.08663 -106.70575 22537 ft 303 kts 11°
2026-04-22 21:01 34.10693 -106.69808 22171 ft 308 kts 11°
2026-04-22 21:02 34.12737 -106.69029 21813 ft 307 kts 12°
2026-04-22 21:02 34.14762 -106.68248 21452 ft 305 kts 11°
2026-04-22 21:02 34.16781 -106.67472 21077 ft 304 kts 11°
2026-04-22 21:02 34.18804 -106.66702 20723 ft 307 kts 11°
2026-04-22 21:03 34.20840 -106.65925 20357 ft 308 kts 12°
2026-04-22 21:03 34.22887 -106.65136 19993 ft 308 kts 12°
2026-04-22 21:03 34.24930 -106.64350 19622 ft 309 kts 12°
2026-04-22 21:03 34.26974 -106.63567 19253 ft 309 kts 12°
2026-04-22 21:04 34.29023 -106.62782 18890 ft 309 kts 12°
2026-04-22 21:04 34.31073 -106.61993 18531 ft 309 kts 12°
2026-04-22 21:04 34.33105 -106.61209 18176 ft 306 kts 12°
2026-04-22 21:04 34.35134 -106.60430 17795 ft 307 kts 12°
2026-04-22 21:05 34.37068 -106.59687 17452 ft 304 kts 12°
2026-04-22 21:05 34.39081 -106.58912 17108 ft 303 kts 12°
2026-04-22 21:05 34.41092 -106.58137 16757 ft 302 kts 13°
2026-04-22 21:05 34.43106 -106.57543 16407 ft 295 kts
2026-04-22 21:06 34.45125 -106.57552 16075 ft 287 kts 347°
2026-04-22 21:06 34.47025 -106.58112 15860 ft 277 kts 334°
2026-04-22 21:06 34.48729 -106.59143 16078 ft 272 kts 327°
2026-04-22 21:06 34.50394 -106.60330 15524 ft 283 kts 331°
2026-04-22 21:07 34.52305 -106.60974 15008 ft 290 kts 346°
2026-04-22 21:07 34.54326 -106.61074 14632 ft 291 kts 360°
2026-04-22 21:07 34.56328 -106.60620 14292 ft 293 kts 10°
2026-04-22 21:07 34.58298 -106.60015 13955 ft 292 kts 10°
2026-04-22 21:08 34.60270 -106.59434 13619 ft 291 kts
2026-04-22 21:08 34.62233 -106.58855 13280 ft 290 kts
2026-04-22 21:08 34.64192 -106.58275 12945 ft 289 kts 10°
2026-04-22 21:08 34.66138 -106.57696 12618 ft 288 kts
2026-04-22 21:09 34.68055 -106.57126 12295 ft 286 kts 10°
2026-04-22 21:09 34.69960 -106.56569 11963 ft 265 kts
2026-04-22 21:09 34.71780 -106.56064 11652 ft 269 kts
2026-04-22 21:09 34.73521 -106.55574 11355 ft 263 kts
2026-04-22 21:10 34.75241 -106.55079 11069 ft 260 kts
2026-04-22 21:10 34.77010 -106.54573 10762 ft 265 kts
2026-04-22 21:10 34.78793 -106.54063 10458 ft 261 kts
2026-04-22 21:10 34.80546 -106.53562 10161 ft 260 kts
2026-04-22 21:11 34.82317 -106.53290 10032 ft 253 kts 355°
2026-04-22 21:11 34.84075 -106.53318 10019 ft 252 kts 355°
2026-04-22 21:11 34.85831 -106.53324 10016 ft 252 kts 355°
2026-04-22 21:11 34.87582 -106.53326 10017 ft 251 kts 355°
2026-04-22 21:12 34.89333 -106.53264 9977 ft 253 kts 358°
2026-04-22 21:12 34.91112 -106.53175 9758 ft 257 kts 358°
2026-04-22 21:12 34.92760 -106.53089 9476 ft 224 kts 358°
2026-04-22 21:12 34.94335 -106.53014 9210 ft 222 kts 357°
2026-04-22 21:13 34.95862 -106.52941 8947 ft 219 kts 357°
2026-04-22 21:13 34.97379 -106.52862 8683 ft 218 kts 357°
2026-04-22 21:13 34.98868 -106.52767 8424 ft 202 kts
2026-04-22 21:13 35.00191 -106.52283 8184 ft 205 kts 21°
2026-04-22 21:14 35.01347 -106.51355 7949 ft 200 kts 30°
2026-04-22 21:14 35.02579 -106.50689 7712 ft 190 kts
2026-04-22 21:14 35.03888 -106.50542 7494 ft 182 kts 351°
2026-04-22 21:14 35.05115 -106.50868 7284 ft 182 kts 334°
2026-04-22 21:15 35.06170 -106.51588 7068 ft 166 kts 317°
2026-04-22 21:15 35.06936 -106.52611 6870 ft 159 kts 301°
2026-04-22 21:15 35.07399 -106.53793 6677 ft 156 kts 285°
2026-04-22 21:15 35.07554 -106.54996 6462 ft 125 kts 270°
2026-04-22 21:16 35.07463 -106.55919 6298 ft 101 kts 257°
2026-04-22 21:16 35.07227 -106.56717 6193 ft 102 kts 247°
2026-04-22 21:16 35.06824 -106.57487 6079 ft 115 kts 235°
2026-04-22 21:16 35.06253 -106.58195 5928 ft 125 kts 230°
2026-04-22 21:17 35.05627 -106.58933 5743 ft 120 kts 230°
2026-04-22 21:17 35.05071 -106.59612 5594 ft 112 kts 230°
2026-04-22 21:17 35.04524 -106.60280 5473 ft 108 kts 226°
2026-04-22 21:17 35.04017 -106.60897 5320 ft 93 kts 224°
2026-04-22 21:18 35.03681 -106.61303 5320 ft 33 kts 225°
2026-04-22 21:18 35.03568 -106.61440 5320 ft 18 kts 224°
2026-04-22 21:18 35.03457 -106.61573 5320 ft 32 kts 225°
2026-04-22 21:18 35.03356 -106.61737 5319 ft 19 kts 278°
2026-04-22 21:19 35.03402 -106.61812 5317 ft 1 kts 313°
2026-04-22 21:19 35.03426 -106.61841 5317 ft 7 kts 314°
2026-04-22 21:19 35.03450 -106.61870 5317 ft 0 kts 314°
2026-04-22 21:20 35.03462 -106.61885 5317 ft 7 kts 316°
2026-04-22 21:20 35.03513 -106.61935 5317 ft 11 kts 346°
2026-04-22 21:21 35.03568 -106.61910 5317 ft 5 kts 51°
2026-04-22 21:21 35.03584 -106.61890 5317 ft 1 kts 41°
2026-04-22 21:21 35.03588 -106.61886 5317 ft 0 kts 41°
2026-04-22 21:21 35.03589 -106.61885 5317 ft 0 kts 41°
2026-04-22 21:55 35.03588 -106.61885 5317 ft 0 kts 41°
2026-04-22 22:02 35.03588 -106.61886 5317 ft 0 kts 41°